Tracking 27112 objects as of 27-Mar-2023
HD Live streaming from Space Station
objects crossing your sky now

SL-16 DEB

Track SL-16 DEB now!
10-day predictions


NORAD ID: 22459
Int'l Code: 1992-093EY
Perigee: 671.4 km
Apogee: 770.9 km
Inclination: 71.2 °
Period: 99.1 minutes
Semi major axis: 7092 km
RCS: 0.027 m2 (small)
Launch date: December 25, 1992
Source: Commonwealth of Independent States (former USSR) (CIS)
Launch site: TYURATAM MISSILE AND SPACE COMPLEX (TTMTR)

Note: This is SATELLITE DEBRIS
Your satellite tracking list
Your tracking list is empty




NASA's NSSDC Master Catalog

Two Line Element Set (TLE):
1 22459U 92093EY  23085.83346851  .00026169  00000-0  60512-2 0  9991
2 22459  71.1746 259.5540 0070156 194.1039 277.2675 14.53557381560566
Source of the keplerian elements: AFSPC